{"data":{"norad_id":67445,"epoch":"2026-05-24T23:03:10.714752Z","epoch_age_seconds":85221,"freshness":"FRESH","line1":"1 67445U 26008A   26144.96054068  .00020535  00000+0  75327-3 0  9998","line2":"2 67445  43.0007 134.7726 0001236 269.1002  90.9708 15.27597156 21233","mean_motion":15.27597156,"eccentricity":0.0001236,"inclination_deg":43.0007,"raan_deg":134.7726,"arg_perigee_deg":269.1002,"mean_anomaly_deg":90.9708,"bstar":0.00075327,"rev_number":2123,"period_min":94.265690031175,"perigee_km":482.14968903255,"apogee_km":483.84576153664,"semimajor_km":6861.1347252846,"source":"CELESTRAK","updated_at":"2026-05-25T13:38:21.559017Z"}}